Auburn, AL

12:33 AM CDT on May 28, 2017 (GMT -0500)
Auburn-opelika-pitts

Weather History for KAUO - December, 2013

Change the Weather History Date:

Sunday, December 8, 2013

  Actual Average Record
Temperature  
Mean Temperature 50 °F -  
Max Temperature 55 °F - 79 °F (1978)
Min Temperature 45 °F - 17 °F (1984)
Degree Days  
Heating Degree Days 15    
Month to date heating degree days 61  
Since 1 July heating degree days 496  
Moisture  
Dew Point 48 °F    
Average Humidity 90    
Maximum Humidity 94    
Minimum Humidity 76    
Precipitation  
Precipitation 0.08 in - 2.13 in (1989)
Month to date precipitation 1.16  
Year to date precipitation 42.42  
Sea Level Pressure  
Sea Level Pressure 30.18 in    
Wind  
Wind Speed 7 mph (ESE)    
Max Wind Speed 10 mph    
Max Gust Speed 17 mph    
Visibility 2 miles    
Events      
T = Trace of Precipitation, MM = Missing Value Source: NWS Daily Summary

Daily Weather History Graph

Daily Weather History Graph

Search for Another Location

Airport or City:

Trip Planner

Search our weather history database for the weather conditions in past years. The results will help you decide how hot, cold, wet, or windy it might be!

Date:

Astronomy

Dec. 08, 2013 Rise Set
Actual Time 6:31 AM CST 4:35 PM CST
Civil Twilight 6:04 AM CST 5:03 PM CST
Nautical Twilight 5:33 AM CST 5:33 PM CST
Astronomical Twilight 5:03 AM CST 6:03 PM CST
Moon 11:06 AM CST (12/8) 11:07 PM CST (12/8)
Length of Visible Light 10h 58m
Length of Day
10h 04m
Waxing Crescent, 40% of the Moon is Illuminated
Dec 8
Waxing Crescent
Dec 9
First Quarter
Dec 17
Full
Dec 25
Last Quarter
Jan 1
New

Hourly Weather History & Observations

Time (CST) Temp. Windchill Dew Point Humidity Pressure Visibility Wind Dir Wind Speed Gust Speed Precip Events Conditions
12:15 AM 46.4 °F 43.5 °F 39.2 °F 76% 30.24 in 10.0 mi ENE 5.8 mph - N/A   Overcast
12:35 AM 46.4 °F 43.5 °F 39.2 °F 76% 30.23 in 10.0 mi ENE 5.8 mph - N/A   Overcast
12:55 AM 46.4 °F 43.5 °F 39.2 °F 76% 30.22 in 10.0 mi ENE 5.8 mph - N/A   Overcast
1:15 AM 46.4 °F 41.9 °F 39.2 °F 76% 30.22 in 10.0 mi ENE 9.2 mph - N/A   Overcast
1:35 AM 46.4 °F 42.9 °F 41.0 °F 81% 30.22 in 10.0 mi East 6.9 mph - N/A   Overcast
1:55 AM 46.4 °F 45.2 °F 42.8 °F 87% 30.22 in 7.0 mi East 3.5 mph - N/A   Overcast
2:15 AM 46.4 °F 42.9 °F 42.8 °F 87% 30.21 in 2.5 mi East 6.9 mph - N/A   Overcast
2:35 AM 46.4 °F 43.5 °F 42.8 °F 87% 30.21 in 3.0 mi East 5.8 mph - N/A   Overcast
2:55 AM 46.4 °F 43.5 °F 42.8 °F 87% 30.21 in 3.0 mi ENE 5.8 mph - N/A   Overcast
3:15 AM 46.4 °F 43.5 °F 44.6 °F 93% 30.21 in 5.0 mi East 5.8 mph - N/A   Overcast
3:35 AM 46.4 °F 44.3 °F 44.6 °F 93% 30.21 in 7.0 mi East 4.6 mph - N/A   Overcast
3:55 AM 46.4 °F 44.3 °F 44.6 °F 93% 30.21 in 5.0 mi East 4.6 mph - N/A   Overcast
4:15 AM 46.4 °F 42.4 °F 44.6 °F 93% 30.21 in 3.0 mi East 8.1 mph - N/A   Overcast
4:35 AM 48.2 °F - 44.6 °F 87% 30.21 in 6.0 mi East 8.1 mph - 0.01 in   Overcast
4:55 AM 48.2 °F - 44.6 °F 87% 30.21 in 3.0 mi ESE 8.1 mph - 0.01 in   Overcast
5:15 AM 48.2 °F - 44.6 °F 87% 30.20 in 4.0 mi ESE 11.5 mph - N/A   Overcast
5:35 AM 48.2 °F - 46.4 °F 93% 30.21 in 3.0 mi ESE 6.9 mph - N/A   Overcast
5:55 AM 48.2 °F - 46.4 °F 93% 30.21 in 3.0 mi SE 5.8 mph - N/A   Overcast
6:15 AM 48.2 °F - 46.4 °F 93% 30.21 in 3.0 mi ESE 8.1 mph - N/A   Overcast
6:35 AM 48.2 °F - 46.4 °F 93% 30.22 in 3.0 mi SE 5.8 mph - N/A   Overcast
6:55 AM 48.2 °F - 46.4 °F 93% 30.21 in 1.2 mi ESE 5.8 mph - N/A   Overcast
7:15 AM 50.0 °F - 48.2 °F 94% 30.20 in 1.8 mi ESE 6.9 mph - N/A   Overcast
7:35 AM 50.0 °F - 48.2 °F 94% 30.20 in 1.5 mi ESE 11.5 mph - N/A   Overcast
7:55 AM 51.8 °F - 48.2 °F 88% 30.19 in 1.0 mi ESE 10.4 mph - N/A   Overcast
8:15 AM 51.8 °F - 48.2 °F 88% 30.21 in 0.8 mi East 5.8 mph - N/A   Overcast
8:35 AM 51.8 °F - 48.2 °F 88% 30.22 in 0.5 mi ESE 3.5 mph - N/A   Overcast
8:55 AM 51.8 °F - 50.0 °F 94% 30.23 in 0.5 mi ESE 5.8 mph - N/A   Overcast
9:15 AM 51.8 °F - 50.0 °F 94% 30.24 in 0.5 mi SE 3.5 mph - N/A   Overcast
9:35 AM 51.8 °F - 50.0 °F 94% 30.23 in 0.5 mi ESE 6.9 mph - N/A   Overcast
9:55 AM 51.8 °F - 50.0 °F 94% 30.23 in 1.0 mi East 6.9 mph - N/A   Overcast
10:15 AM 51.8 °F - 50.0 °F 94% 30.22 in 2.5 mi ESE 4.6 mph - 0.01 in   Overcast
10:35 AM 51.8 °F - 50.0 °F 94% 30.21 in 3.0 mi ESE 5.8 mph - 0.06 in   Overcast
10:55 AM 53.6 °F - 50.0 °F 88% 30.19 in 7.0 mi East 4.6 mph - 0.06 in   Overcast
11:15 AM 53.6 °F - 50.0 °F 88% 30.19 in 5.0 mi ESE 10.4 mph - 0.01 in   Overcast
11:35 AM 53.6 °F - 50.0 °F 88% 30.17 in 1.8 mi SE 8.1 mph - 0.01 in   Overcast
11:55 AM 53.6 °F - 51.8 °F 94% 30.16 in 1.2 mi ESE 5.8 mph - 0.01 in   Overcast
12:15 PM 53.6 °F - 51.8 °F 94% 30.14 in 0.5 mi ESE 4.6 mph - N/A   Overcast
12:35 PM 53.6 °F - 51.8 °F 94% 30.14 in 0.5 mi ESE 5.8 mph - N/A   Overcast
12:55 PM 53.6 °F - 51.8 °F 94% 30.13 in 0.5 mi ESE 8.1 mph - N/A   Overcast
1:15 PM 53.6 °F - 51.8 °F 94% 30.13 in 0.5 mi SE 8.1 mph - N/A   Overcast
1:35 PM 53.6 °F - 51.8 °F 94% 30.13 in 0.8 mi ESE 8.1 mph - N/A   Overcast
1:55 PM 53.6 °F - 51.8 °F 94% 30.12 in 0.8 mi ESE 6.9 mph - N/A   Overcast
2:15 PM 53.6 °F - 51.8 °F 94% 30.12 in 1.0 mi ESE 8.1 mph - N/A   Overcast
2:35 PM 53.6 °F - 51.8 °F 94% 30.13 in 1.2 mi ESE 5.8 mph - N/A   Overcast
2:55 PM 53.6 °F - 51.8 °F 94% 30.13 in 1.0 mi East 8.1 mph - N/A   Overcast
3:15 PM 53.6 °F - 51.8 °F 94% 30.13 in 0.8 mi East 8.1 mph - N/A   Overcast
3:35 PM 53.6 °F - 51.8 °F 94% 30.14 in 0.5 mi East 6.9 mph - N/A   Overcast
3:55 PM 53.6 °F - 51.8 °F 94% 30.14 in 0.5 mi East 8.1 mph - N/A   Overcast
4:15 PM 53.6 °F - 51.8 °F 94% 30.13 in 0.2 mi East 9.2 mph - N/A   Overcast
4:35 PM 53.6 °F - 51.8 °F 94% 30.13 in 0.2 mi East 10.4 mph - N/A   Overcast
4:55 PM 53.6 °F - 51.8 °F 94% 30.14 in 0.5 mi East 10.4 mph - N/A   Overcast
5:15 PM 53.6 °F - 51.8 °F 94% 30.14 in 0.8 mi East 9.2 mph - N/A   Overcast
5:35 PM 53.6 °F - 51.8 °F 94% 30.14 in 0.5 mi East 5.8 mph - N/A   Overcast
5:55 PM 53.6 °F - 51.8 °F 94% 30.15 in 0.5 mi East 9.2 mph - N/A   Overcast
6:15 PM 53.6 °F - 51.8 °F 94% 30.16 in 0.5 mi East 8.1 mph - N/A   Overcast
6:35 PM 51.8 °F - 50.0 °F 94% 30.16 in 0.5 mi East 5.8 mph - N/A   Overcast
6:55 PM 51.8 °F - 50.0 °F 94% 30.15 in 0.8 mi East 8.1 mph - N/A   Overcast
7:15 PM 51.8 °F - 50.0 °F 94% 30.16 in 0.8 mi ESE 9.2 mph - N/A   Overcast
7:35 PM 51.8 °F - 50.0 °F 94% 30.16 in 0.8 mi ESE 6.9 mph - N/A   Overcast
7:55 PM 51.8 °F - 48.2 °F 88% 30.14 in 0.8 mi ESE 5.8 mph 17.3 mph N/A   Overcast
8:15 PM 51.8 °F - 48.2 °F 88% 30.14 in 0.8 mi ESE 10.4 mph - N/A   Overcast
8:35 PM 51.8 °F - 48.2 °F 88% 30.14 in 0.5 mi ESE 6.9 mph - N/A   Overcast
8:55 PM 51.8 °F - 48.2 °F 88% 30.15 in 0.5 mi ESE 5.8 mph - N/A   Overcast
9:15 PM 51.8 °F - 48.2 °F 88% 30.15 in 0.5 mi East 6.9 mph - N/A   Overcast
9:35 PM 51.8 °F - 48.2 °F 88% 30.15 in 0.5 mi ESE 8.1 mph - N/A   Overcast
9:55 PM 51.8 °F - 48.2 °F 88% 30.15 in 0.5 mi ESE 8.1 mph - N/A   Overcast
10:15 PM 51.8 °F - 48.2 °F 88% 30.14 in 0.5 mi ESE 8.1 mph - N/A   Overcast
10:35 PM 51.8 °F - 48.2 °F 88% 30.14 in 0.5 mi ESE 8.1 mph - N/A   Overcast
10:55 PM 51.8 °F - 48.2 °F 88% 30.14 in 0.8 mi ESE 8.1 mph - N/A   Overcast
11:15 PM 51.8 °F - 48.2 °F 88% 30.14 in 0.8 mi ESE 6.9 mph - N/A   Overcast
11:35 PM 51.8 °F - 48.2 °F 88% 30.13 in 0.5 mi SE 6.9 mph - N/A   Overcast
11:55 PM 51.8 °F - 48.2 °F 88% 30.14 in 0.5 mi SE 5.8 mph - N/A   Overcast